Regional Weather Roundup
Issued by NWS

Home | Current Version | Previous Version | Graphics & Text | Print | Product List | Glossary On
Versions: 1 2 3 4 5 6 7 8 9 10 11 12 13 14 15 16 17 18 19 20 21 22 23 24 25 26 27
000
ASUS45 KBOU 242107
RWRCO

WEATHER ROUNDUP FOR COLORADO
NATIONAL WEATHER SERVICE DENVER/BOULDER CO
200 PM MST FRI FEB 24 2017

NOTE: "FAIR" INDICATES FEW OR NO CLOUDS BELOW 12000 FEET WITH NO
SIGNIFICANT WEATHER AND/OR OBSTRUCTIONS TO VISIBILITY.

COZ001>005-013-030-031-242200-
...NORTHWEST COLORADO...

CITY           SKY/WX    TMP DP  RH WIND       PRES   REMARKS
CRAIG          CLOUDY    23  12  62 W12       29.95R WCI  12
HAYDEN         FAIR      21   9  58 W13       29.92R WCI   9
MEEKER         PTSUNNY   27   9  46 NW10G18   29.91S WCI  17
MOUNT WERNER   NOT AVBL
STEAMBOAT SPGS CLOUDY    20  10  64 SW9       29.89S WCI  10
WALDEN         NOT AVBL
$$

COZ006>008-011-242200-
...WEST CENTRAL VALLEYS...

CITY           SKY/WX    TMP DP  RH WIND       PRES   REMARKS
GRAND JUNCTION CLOUDY    33  13  43 NW12      29.96R WCI  24
MONTROSE       CLOUDY    28  14  55 W9        29.97R WCI  19
EAGLE          NOT AVBL
RIFLE          MIX PCPN  31  21  66 NW16G29   29.93R WCI  20
DELTA          CLOUDY    38   4  24 W18G25    29.93R
NUCLA          FAIR      32  14  47 NW7       29.98S WCI  26
$$

COZ017>023-064>068-242200-
...SOUTHWEST COLORADO...

CITY           SKY/WX    TMP DP  RH WIND       PRES   REMARKS
DURANGO        FAIR      32   9  38 W17       29.91S WCI  21
CORTEZ         CLOUDY    30  20  66 NE7       29.96R WCI  23
PAGOSA SPRINGS CLOUDY    26   4  37 W13G25    29.87R HAZE    WCI  15
TELLURIDE      SNOW      16  11  79 W15       29.87R VSB 1/2 WCI   2
WOLF CREEK PAS SNOW       3   1  92 SW16G31   29.77R VSB 1/4 WCI -16
$$

COZ009-010-012-014-032>034-037-058>063-242200-
...CENTRAL COLORADO...

CITY           SKY/WX    TMP DP  RH WIND       PRES   REMARKS
ASPEN          FLURRIES  20  11  68 N7        29.82R WCI  11
BUENA VISTA    CLOUDY    28 -10  19 NW8       29.78S WCI  20
COPPER MTN     NOT AVBL
BERTHOUD PASS  SNOW       0  -9  65 NW15      29.64R VSB 1/2 WCI -20
COTTONWOOD PAS CLOUDY    21 -17  18 SW12G24   29.74R WCI   9
GUNNISON       FLURRIES  20  12  71 SE3       29.85S
KREMMLING      CLOUDY    30   5  34 NW13G20   29.84R WCI  20
LEADVILLE      CLOUDY    14  -4  44 N14G22    29.72F WCI  -1
MONARCH PASS   CLOUDY     3   0  85 W23G30    29.79S WCI -19
SALIDA         CLOUDY    30  -8  18 NW10      29.87R WCI  21
SUNLIGHT       NOT AVBL
WILKERSON PASS CLOUDY     9  -4  56 N3        29.71S
$$

COZ069>075-242200-
...SAN LUIS VALLEY/SANGRE DE CRISTO MOUNTAINS...

CITY           SKY/WX    TMP DP  RH WIND       PRES   REMARKS
ALAMOSA        PTSUNNY   26   6  42 W3        29.82R
LA VETA PASS   CLOUDY    19   5  53 S17G25    29.76R WCI   4
SAGUACHE       PTSUNNY   30   1  29 NW12G23   29.81S WCI  21
$$

COZ035-036-038>040-242200-
...NORTHERN COLORADO FRONT RANGE...

CITY           SKY/WX    TMP DP  RH WIND       PRES   REMARKS
DENVER INTL AP PTSUNNY   23  13  65 E6        29.93S WCI  16
DMNS CITY PARK   N/A     25  13  58 MISG      29.94R
AURORA         PTSUNNY   22  14  69 CALM      29.93S
FRONT RANGE AP PTSUNNY   25  16  68 NW5       29.94S WCI  19
ERIE MUNI ARPT CLOUDY    25  16  69 E5        29.96R WCI  19
BOULDER MUN AP FLURRIES  25  16  68 CALM      29.94R
CENTENNIAL     PTSUNNY   22  10  60 E3        29.91S
BROOMFIELD     CLOUDY    25  14  63 N3        29.93S
FORT COLLINS   CLOUDY    27  16  63 SE5       29.97S WCI  21
LONGMONT       FLURRIES  31  15  51 N6        29.98S WCI  26
$$

COZ041-046-047-076>085-087-088-242200-
...PIKES PEAK/PALMER DIVIDE AND SOUTHERN FOOTHILLS...

CITY           SKY/WX    TMP DP  RH WIND       PRES   REMARKS
COLO. SPRINGS  LGT SNOW  26   8  46 CALM      29.89R
A. F. ACADEMY  CLOUDY    23   9  54 VRB5      29.86S WCI  17
SCHRIEVER AFB  FAIR      24   8  49 NE8       29.89S WCI  16
ELLICOTT       PTSUNNY  N/A N/A N/A N5        29.88R
FALCON         PTSUNNY   22   9  57 CALM      29.88R
FORT CARSON    CLOUDY    28   6  39 VRB3      29.89R
LIMON          FLURRIES  24  15  68 N12G17    29.93S WCI  13
MONUMENT HILL  FLURRIES  18  10  73 NW3       29.87S
TRINIDAD       FAIR      32  10  40 S5        29.88S WCI  27
$$

COZ042>045-048>051-090-091-242200-
...NORTHEAST COLORADO...

CITY           SKY/WX    TMP DP  RH WIND       PRES   REMARKS
GREELEY ARPT   CLOUDY    25  18  74 NE9       30.00R WCI  15
AKRON          CLOUDY    23  17  78 N7        29.97S WCI  15
BURLINGTON     CLOUDY    28  18  66 N15       29.97S WCI  16
WRAY           NOT AVBL
STERLING       FLURRIES  27  19  74 CALM      30.01R
HOLYOKE        FAIR      32  23  69 N10       30.02R WCI  24
FORT MORGAN    CLOUDY    26  18  73 NE5       29.99F WCI  20
$$

COZ086-089-092>099-242200-
...SOUTHEAST COLORADO...

CITY           SKY/WX    TMP DP  RH WIND       PRES   REMARKS
PUEBLO         PTSUNNY   34   9  35 CALM      29.92F
LA JUNTA       FAIR      37  11  34 N10G18    29.95S
LAMAR          CLOUDY    37  14  38 N16       29.95S
SPRINGFIELD      N/A     36  13  38 N15G24    29.92S
$$




USA.gov is the U.S. government's official web portal to all federal, state and local government web resources and services.